www.pogodaiklimat.ru

Погода и климат >> Архив погоды >> Россия >> Хабаровский край >> Георгиевка


ПОГОДА в Георгиевке

  • Прогноз погоды в Георгиевке
  • Монитор погоды в Георгиевке
  • Климат города

АРХИВ ПОГОДЫ в Георгиевке

Время (UTC), дата Ветер
(напр.,м/с)
 
Видим.   Явления Облачность Т
(С)
Тd
(С)
f
(%)
Тe
(С)
Тes
(С)
Комфортность P
(гПа)
Po
(гПа)
Тmin
(С)
Tmax
(С)
R
(мм)
S
(см)
03 16.03 СВ 2 20 км ясно +2.0 -7.9 48 -1 +9 1019.5 1010.7
06 16.03 СВ 2 20 км ясно +3.1 -11.6 33 +1 +6 1019.5 1010.7
09 16.03 С 2 20 км ясно +1.5 -10.3 41 -1 -1 1019.5 1010.7 +3.1
12 16.03 штиль 0 20 км ясно -6.4 -9.3 80 -7 -7 1019.8 1010.7
15 16.03 СЗ 1 20 км ясно -9.4 -11.4 85 -12 -12 1021.2 1012.0
18 16.03 штиль 0 10 км 7 баллов -9.6 -11.5 86 -10 -10 1021.2 1012.0
21 16.03 штиль 0 20 км 6 баллов -10.3 -11.8 89 -11 -11 1021.2 1012.0 -10.8
00 17.03 СВ 1 20 км 2 балла -3.9 -9.9 63 -6 -1 1022.3 1013.3
03 17.03 З 1 20 км 2 балла +3.0 -7.5 46 +2 +11 опасность
простуды
1020.8 1012.0
06 17.03 СВ 1 20 км 2 балла +4.8 -8.3 38 +4 +9 1020.7 1012.0
09 17.03 СВ 1 20 км ясно +1.7 -8.7 46 +1 +1 1020.8 1012.0 +5.3
12 17.03 штиль 0 10 км ясно -4.7 -8.1 77 -6 -6 1022.4 1013.3
15 17.03 штиль 0 10 км ясно -8.9 -10.0 92 -10 -10 1022.5 1013.3
18 17.03 штиль 0 10 км ясно -11.3 -12.5 91 -11 -11 1024.0 1014.7
21 17.03 СВ 1 20 км ясно -13.0 -14.4 89 -15 -15 1024.1 1014.7 -13.3
00 18.03 штиль 0 20 км ясно -2.4 -8.9 61 -3 +4 1023.7 1014.7
03 18.03 СЗ 1 20 км ясно +4.6 -8.8 37 +4 +16 опасность
простуды
1022.0 1013.3
06 18.03 З 3 20 км ясно +5.3 -9.3 34 +3 +7 1022.0 1013.3
09 18.03 штиль 0 20 км 1 балл +2.7 -8.6 43 +2 +2 1022.1 1013.3 +5.9
12 18.03 штиль 0 10 км ясно -4.5 -8.1 76 -5 -5 1022.3 1013.3
15 18.03 штиль 0 10 км ясно -8.2 -9.5 90 -9 -9 1022.5 1013.3
18 18.03 штиль 0 10 км ясно -10.3 -11.3 92 -11 -11 1022.5 1013.3
21 18.03 СВ 1 20 км ясно -11.6 -12.8 91 -14 -14 1024.0 1014.7 -11.8
00 19.03 В 1 20 км ясно -1.5 -7.8 62 -3 +3 1023.7 1014.7
03 19.03 СВ 2 20 км ясно +3.8 -8.2 41 +2 +12 опасность
простуды
1023.5 1014.7
06 19.03 С 1 20 км ясно +5.1 -11.9 28 +5 +11 1022.0 1013.3
09 19.03 штиль 0 20 км ясно +2.8 -8.8 42 +3 +3 1022.1 1013.3 +6.8
12 19.03 штиль 0 10 км ясно -4.6 -8.0 77 -5 -5 1022.3 1013.3
15 19.03 штиль 0 10 км ясно -7.5 -9.4 86 -8 -8 1022.4 1013.3
18 19.03 штиль 0 10 км ясно -9.3 -10.8 89 -10 -10 1022.5 1013.3
21 19.03 В 1 20 км ясно -10.3 -12.0 87 -13 -13 1022.5 1013.3 -10.3
00 20.03 СВ 1 20 км 7 баллов -2.0 -9.6 56 -4 -2 1020.9 1012.0 -10.4
03 20.03 ЮЗ 1 20 км ясно +7.7 -6.4 36 +8 +20 опасность
простуды
1019.3 1010.7
06 20.03 СЗ 2 20 км 1 балл +7.1 -6.3 38 +6 +10 1016.6 1008.0
09 20.03 СЗ 1 20 км 2 балла +2.1 -4.4 62 +1 +1 1015.5 1006.7 +8.0
12 20.03 Ю 1 10 км 2 балла -2.9 -5.9 80 -5 -5 1015.6 1006.7
15 20.03 З 2 10 км 2 балла -2.6 -4.5 87 -7 -7 1014.2 1005.3
18 20.03 штиль 0 10 км 4 балла -6.3 -7.2 93 -7 -7 1013.0 1004.0
21 20.03 штиль 0 20 км 1 балл -4.8 -8.7 74 -6 -6 1012.4 1004.0 -9.0
00 21.03 СВ 2 20 км 4 балла -0.7 -6.1 67 -4 -1 1011.5 1002.7
03 21.03 СВ 2 20 км 7 баллов +3.2 -5.7 52 +1 +4 1011.4 1002.7
06 21.03 СВ 2 20 км 7 баллов +4.0 -7.4 43 +2 +4 1010.0 1001.3
09 21.03 штиль 0 20 км 7 баллов +2.0 -7.6 49 +2 +2 1010.0 1001.3 +5.3
12 21.03 штиль 0 10 км 6 баллов -2.9 -6.4 77 -4 -4 1011.6 1002.7
15 21.03 штиль 0 10 км 4 балла -4.0 -5.4 90 -5 -5 1010.2 1001.3
18 21.03 штиль 0 10 км 2 балла -5.0 -7.7 81 -6 -6 1010.3 1001.3
21 21.03 С 1 20 км 7 баллов -3.6 -9.6 63 -5 -5 1010.2 1001.3 -5.2
00 22.03 С 1 20 км 10 баллов -1.9 -9.7 55 -3 -3 1011.6 1002.7
03 22.03 СЗ 2 20 км 10 баллов +0.4 -6.9 58 -3 -3 1011.5 1002.7
06 22.03 С 2 20 км 10 баллов +0.1 -4.9 69 -3 -3 1012.8 1004.0
09 22.03 С 2 20 км 10 баллов -0.8 -5.6 70 -4 -4 1015.6 1006.7 +1.5
12 22.03 С 1 10 км слабый снег 10 баллов -2.3 -4.5 85 -4 -4 1016.9 1008.0
15 22.03 СЗ 1 10 км ясно -3.2 -6.2 80 -5 -5 1018.3 1009.3
18 22.03 СЗ 1 10 км 5 баллов -4.8 -11.6 59 -7 -7 1018.3 1009.3
21 22.03 СЗ 1 20 км 10 баллов -6.8 -12.8 62 -9 -9 1019.8 1010.7 -6.9 0.2

 

Местоположение метеостанции Георгиевка (Хабаровский край, Россия): широта 47.95 долгота 135.20 высота над уровнем моря 70 м.

В архиве по умолчанию представлена погода в Георгиевке за последнюю неделю. Архивные данные за месяц целиком и за предыдущие месяцы, начиная с января 2011 года, Вы можете получить, выбрав интересующий диапазон дат из раскрывающегося списка и нажав кнопку "Ввод!".

Внимание! Время в таблицах - всемирное. Для получения местного времени необходимо прибавить поправку, которая в Георгиевке равна 10 ч.

Смотрите также архив погоды в соседних городах и на ближайших метеорологических станциях:

Погода в Бичевой (Хабаровский край, Россия) (36 км)
Погода в Вяземском (Хабаровский край, Россия) (61 км)
Погода в Хабаровске Агромет (Хабаровский край, Россия) (64 км)
Погода в Хабаровске (Хабаровский край, Россия) (64 км)
Погода в Гвасюгах (Хабаровский край, Россия) (74 км)
Погода в Елабуге (Хабаровский край, Россия) (106 км)
Погода в Лермонтовке (Хабаровский край, Россия) (112 км)
Погода в Смидовиче (Еврейская автономная область, Россия) (126 км)
Погода в Литовко (Хабаровский край, Россия) (143 км)
Погода в Бикине (Хабаровский край, Россия) (148 км)

Пояснения к столбцам:

Ветер - указаны скорость ветра в м/с - средняя за 10 мин, порывы в срок и между сроками (в фигурных скобках) и направление, откуда дует ветер: С - северный, СВ - северо-восточный, В - восточный, ЮВ - юго-восточный, Ю - южный, ЮЗ - юго-западный, З - западный, СЗ - северо-западный.
Видимость - горизонтальная дальность видимости в метрах или километрах. При видимости от 1 до 10 км при отсутствии осадков обычно наблюдается дымка, при ухудшении видимости до 1 км и менее - туман. В сухую погоду видимость может ухудшаться дымом, пылью или мглою.
Явления - указаны атмосферные явления, наблюдавшиеся в срок или в последний час перед сроком; фигурными скобками обозначены явления, наблюдавшиеся между сроками (за 1-3 часа до срока); квадратными скобками обозначены град или гололедные отложения с указанием их диаметра в мм.
Облачность - указаны через наклонную черту общая и нижняя облачность в баллах и высота нижней границы облаков в метрах; квадратными скобками обозначены формы облаков: Ci - перистые, Cs - перисто-слоистые, Cc - перисто-кучевые, Ac - высококучевые, As - высокослоистые, Sc - слоисто-кучевые, Ns - слоисто-дождевые, Cu - кучевые, Cb - кучево-дождевые. Подробнее классификацию облаков см. в Атласе облаков (PDF).
T - Температура воздуха - температура, измеренная на высоте 2 м над землей.
Td - Температура точки росы - температура, при понижении до которой содержащийся в воздухе водяной пар достигнет насыщения.
f - Относительная влажность воздуха - влажноcть воздуха, измеренная на высоте 2 м над землей.
Te - Эффективная температура - температура, которую ощущает одетый по сезону человек в тени. Характеристика душности погоды. При расчете учитывается влияние влажности воздуха и скорости ветра на теплоощущения человека.
Tes - Эффективная температура на солнце - температура, которую ощущает человек, с поправкой на солнечный нагрев. Характеристика знойности погоды. Зависит от высоты солнца над горизонтом, облачности и скорости ветра. Ночью, в пасмурную погоду, а также при ветре 12 м/с и более поправка равна нулю.
P - Атмосферное давление - приведенное к уровню моря атмосферное давление.
Po - Атмосферное давление - измеренное на уровне метеостанции атмосферное давление.
Tmin - Минимальная температура - минимум температуры воздуха на высоте 2 м над землей.
Tmax - Максимальная температура - максимум температуры воздуха на высоте 2 м над землей.
R - Количество осадков - Количество выпавших осадков, мм. При наведении курсора мыши на число - период времени, за который выпало указанное количество осадков.
S - Снежный покров - Высота снежного покрова, см. При наведении курсора мыши на число - состояние снежного покрова и степень покрытия местности в баллах.